STARLINK-2245 (48589 NORAD) Tracking and Keplerian Element Data

This shows tracking and keplerian element data for the satellite.

Feedback or suggestion? Click here.




ElementValue
Catalog48589
NameSTARLINK-2245
Epoch Orbit1249
Epoch Day215.080923
Epoch Year2021
RAAN111.6761
Inclination53.0568
Eccentricity0.0002306
Argument of Perigee95.0009
Mean Anonmoly265.1243
Mean Motion15.06416006
Decay Rate-4.181E-05
L11 48589U 21041AN 21215.08092300 -.00004181 00000-0 -26179-3 0 9999
L22 48589 53.0568 111.6761 0002306 95.0009 265.1243 15.06416006 12498

Live tracking and technical data element details for STARLINK-2245 (NORAD 48589). STARLINK-2245 can be tracked NOW for your location showing map with azimuth and elevation plus other details from your city location.

Track the satellite on the map from your city or location and see movement details for azimuth, elevation, latitude, longitude, range, height, and movement on the map or in text.







IsCatalogInMostPopularTable: catalog: 48589, numindb: 19
Update: records affected: 1



GetName: 48589 STARLINK-2245

Hit Count: updated at: Tue, 03 Aug 2021 21:09:42 GMT